Location: Dumpton Point
(51.3500°N, 1.4433°E)
Time: 19:45:50
(UTC+00:00)

ISS - Pass Details

Date: 07 December 2021
Orbit: 413 x 422 km, 51.6° (Epoch: 20 January)

Event Time Altitude Azimuth Distance (km) Brightness Sun altitude
Rises 17:36:50 0° 282° (WNW) 2,387 1.2 -16.2°
Reaches altitude 10° 17:39:26 10° 261° (W) 1,515 0.4 -16.6°
Maximum altitude 17:41:44 17° 219° (SW) 1,147 -0.8 -16.9°
Drops below altitude 10° 17:44:02 10° 176° (S) 1,504 -0.8 -17.2°
Enters shadow 17:46:42 - 155° (SSE) 2,399 0.0 -17.7°
